[[{"header":{"parameterUnit":"m.s-1","parameterCategory":1,"la1":30.2991,"la2":30.254,"lo1":-89.0895,"lo2":-89.0444,"dy":0.0017,"dx":0.0017,"nx":28,"ny":28,"refTime":"2023-09-05T09:00:00:Z","depth":0,"parameterNumber":2,"parameterNumberName":"U-component_of_WINDS"},"data":[0,0,0,0,0,0,0,0,0,0,0,0,0,0,0,0,0,0,0,0,0,0,0,0,0,0,0,0,0,0,0,0,0,0,0,0,0,0,0,0,0,0,0,0,0,0,0,0,0,0,0,0,0,0,0,0,0,0,-3.9456,-3.9456,0,-3.9513,-3.9514,-3.9514,-3.9467,-3.9465,-3.9463,-3.9461,-3.952,-3.9523,-3.9526,0,0,0,0,0,0,0,0,0,0,0,0,0,-3.9304,-3.9307,-3.9456,-3.9456,-3.9457,-3.9513,-3.9514,-3.9515,-3.9467,-3.9465,-3.9463,-3.946,-3.9518,-3.9522,-3.9527,0,0,0,0,0,0,0,0,0,0,0,0,0,-3.9367,-3.9308,-3.9456,-3.944,-3.9439,-3.9513,-3.9514,-3.9515,-3.9468,-3.9465,-3.9462,-3.9459,-3.9517,-3.9522,-3.9527,-3.9619,0,0,-3.9543,-3.9545,0,0,0,0,0,0,0,0,-3.9363,-3.9372,-3.9442,-3.9441,-3.9441,-3.948,-3.9482,-3.955,-3.9469,-3.9457,-3.9461,-3.9458,-3.9509,-3.9514,-3.9532,-3.9621,-3.9624,-3.9543,-3.9546,-3.9549,-3.955,0,0,0,0,0,0,0,-3.9359,-3.937,-3.9478,-3.9443,-3.9442,-3.943,-3.9436,-3.9495,-3.9499,-3.9458,-3.9455,-3.9462,-3.9508,-3.9527,-3.9533,-3.9625,-3.9543,-3.9548,-3.9551,-3.9553,-3.9791,-3.9794,0,0,0,0,0,0,-3.9356,-3.9366,-3.9477,-3.948,-3.9394,-3.9436,-3.9442,-3.947,-3.9498,-3.95,-3.9465,-3.946,-3.952,-3.9527,-3.9535,-3.9642,-3.9548,-3.9553,-3.9556,-3.9788,-3.9791,-3.9795,0,0,0,0,0,0,-3.9353,-3.9367,-3.9474,-3.9422,-3.9435,-3.9441,-3.9474,-3.9473,-3.9492,-3.9503,-3.9504,-3.9483,-3.9518,-3.9527,-3.9598,-3.9643,-3.9556,-3.956,-3.9784,-3.9789,-3.9793,-3.9859,0,0,0,0,0,0,-3.9349,-3.9366,-3.9401,-3.9424,-3.9438,-3.9537,-3.9477,-3.9476,-3.9501,-3.9495,-3.9521,-3.9522,-3.9516,-3.959,-3.9603,-3.9649,-3.9564,-3.978,-3.9786,-3.9792,-3.9852,-3.9865,-3.9876,0,0,0,0,0,-3.9344,-3.9417,-3.9403,-3.9416,-3.9482,-3.954,-3.9548,-3.9539,-3.9505,-3.954,-3.9547,-3.9521,-3.9637,-3.9598,-3.9612,-3.966,-3.9777,-3.9784,-3.9791,-3.9847,-3.9863,-3.9876,0,0,0,0,0,0,-3.94,-3.942,-3.9404,-3.9487,-3.9512,-3.9531,-3.9575,-3.9556,-3.9591,-3.9584,-3.9572,-3.9578,-3.9652,-3.9663,-3.962,-3.9749,-3.9701,-3.9712,-3.9739,-3.9754,-3.9766,-3.9761,-3.9568,0,0,0,0,0,-3.9422,-3.9467,-3.9482,-3.9554,-3.9567,-3.9569,-3.9594,-3.9585,-3.961,-3.9621,-3.9633,-3.9658,-3.97,-3.9728,-3.9767,-3.9855,-3.9859,-3.9894,-3.9906,-3.9916,-3.9925,-3.997,-3.9986,-3.9819,-3.9819,-3.9819,0,0,-3.9467,-3.9484,-3.9513,-3.9565,-3.9583,-3.963,-3.9578,-3.963,-3.9664,-3.9628,-3.9695,-3.9705,-3.9733,-3.9812,-3.9847,-3.9823,-3.9972,-3.9925,-3.9933,-3.9936,-3.9979,-3.9995,-4.0009,-3.9824,-3.9823,-3.9822,0,0,-3.9574,-3.9592,-3.9652,-3.9672,-3.97,-3.9701,-3.9716,-3.9738,-3.9744,-3.9811,-3.9784,-3.9825,-3.9898,-3.9918,-3.9938,-4.0052,-4.003,-4.0066,-4.0127,-4.0172,-4.0185,-4.0196,-4.0236,-4.025,-4.0075,-4.0075,-4.0075,0,-3.9627,-3.9696,-3.9686,-3.974,-3.9763,-3.9733,-3.9794,-3.9813,-3.9853,-3.987,-3.9843,-3.9933,-3.9949,-4.0032,-4.006,-4.0077,-4.0093,-4.0062,-4.0184,-4.0195,-4.0206,-4.0243,-4.0258,-4.0079,-4.0078,-4.0078,-4.0078,0,-3.9759,-3.9808,-3.9854,-3.9892,-3.9921,-3.9978,-3.9976,-4.0007,-3.9996,-3.9999,-4.0067,-4.0086,-4.0128,-4.0148,-4.0138,-4.0229,-4.0213,-4.0185,-4.0136,-4.0226,-4.0261,-4.0275,-4.0085,-4.0083,-4.0082,-4.0081,0,0,-3.9902,-3.9934,-3.9951,-3.9968,-3.9997,-4.0034,-4.009,-4.0131,-4.0156,-4.0185,-4.023,-4.0293,-4.0267,-4.029,-4.0282,-4.0321,-4.0409,-4.0288,-4.0289,-4.0309,-4.0509,-4.0528,-4.0545,-4.0395,-4.0397,-4.04,-4.0506,0,-4.0008,-4.0105,-4.0097,-4.0188,-4.0232,-4.0204,-4.0253,-4.0276,-4.0281,-4.0319,-4.0324,-4.0368,-4.0332,-4.0345,-4.0383,-4.039,-4.0448,-4.0383,-4.0436,-4.0438,-4.0428,-4.0563,-4.0584,-4.0684,-4.052,-4.0522,-4.0524,0,-4.0145,-4.0178,-4.0273,-4.0295,-4.0313,-4.0357,-4.0393,-4.043,-4.0455,-4.0456,-4.0482,-4.0467,-4.0522,-4.0474,-4.0549,-4.0505,-4.0526,-4.0533,-4.0537,-4.054,-4.0485,-4.0569,-4.0715,-4.073,-4.0545,-4.0543,-4.0542,0,-4.0238,-4.0306,-4.0371,-4.0387,-4.0414,-4.0445,-4.0458,-4.048,-4.0505,-4.0537,-4.0553,-4.0592,-4.0612,-4.0642,-4.0638,-4.0603,-4.0715,-4.0666,-4.0716,-4.0716,-4.0739,-4.0738,-4.089,-4.0757,-4.0756,-4.0756,-4.0756,0,-4.0357,-4.0416,-4.0413,-4.0453,-4.0518,-4.0509,-4.0574,-4.0583,-4.0603,-4.0644,-4.0623,-4.0662,-4.0655,-4.0694,-4.0691,-4.0754,-4.0764,-4.0765,-4.0763,-4.0766,-4.0766,-4.0779,-4.0771,-4.076,-4.0759,-4.0758,-4.0758,0,-4.047,-4.0471,-4.054,-4.056,-4.0566,-4.0613,-4.063,-4.0668,-4.0671,-4.0724,-4.0735,-4.0741,-4.0785,-4.0785,-4.0836,-4.0834,-4.091,-4.0901,-4.0901,-4.0899,-4.0948,-4.0943,-4.1113,-4.1134,-4.0989,-4.099,-4.0991,0,-4.0545,-4.059,-4.0614,-4.064,-4.0655,-4.0697,-4.0722,-4.0715,-4.0742,-4.0774,-4.0808,-4.085,-4.0884,-4.0956,-4.0965,-4.1003,-4.0994,-4.1051,-4.1,-4.1001,-4.0993,-4.099,-4.0994,-4.1061,-4.1062,-4.1064,-4.1065,0,-4.0678,-4.0676,-4.0713,-4.075,-4.078,-4.0809,-4.0836,-4.0858,-4.0854,-4.0886,-4.0931,-4.0957,-4.1009,-4.1051,-4.1088,-4.1101,-4.1082,-4.1081,-4.1094,-4.1097,-4.1094,-4.1095,-4.0927,-4.1077,-4.1076,-4.1075,-4.1074,-4.1074,-4.0774,-4.0811,-4.0834,-4.0876,-4.0895,-4.092,-4.0956,-4.0964,-4.1001,-4.1043,-4.1037,-4.1087,-4.111,-4.1158,-4.1174,-4.1213,-4.1193,-4.1213,-4.1218,-4.1222,-4.1227,-4.109,-4.122,-4.122,-4.1219,-4.1219,-4.1219,0,-4.0904,-4.0917,-4.0956,-4.0993,-4.1026,-4.1005,-4.1034,-4.1062,-4.1106,-4.113,-4.1163,-4.1215,-4.1255,-4.1267,-4.1306,-4.1335,-4.1327,-4.1345,-4.1342,-4.1345,-4.1243,-4.1227,-4.1351,-4.1351,-4.1351,-4.1351,-4.1351,-4.1351,-4.0975,-4.1038,-4.1038,-4.111,-4.1123,-4.1171,-4.1189,-4.1212,-4.123,-4.1289,-4.1322,-4.133,-4.1348,-4.1388,-4.1425,-4.1427,-4.1442,-4.1463,-4.1462,-4.1366,-4.1353,-4.134,-4.1325,-4.1467,-4.1467,-4.156,-4.1561,-4.1562]},{"header":{"parameterUnit":"m.s-1","parameterCategory":1,"la1":30.2991,"la2":30.254,"lo1":-89.0895,"lo2":-89.0444,"dy":0.0017,"dx":0.0017,"nx":28,"ny":28,"refTime":"2023-09-05T09:00:00:Z","depth":0,"parameterNumber":3,"parameterNumberName":"V-component_of_WINDS"},"data":[0,0,0,0,0,0,0,0,0,0,0,0,0,0,0,0,0,0,0,0,0,0,0,0,0,0,0,0,0,0,0,0,0,0,0,0,0,0,0,0,0,0,0,0,0,0,0,0,0,0,0,0,0,0,0,0,0,0,4.8207,4.8207,0,4.8204,4.8204,4.8204,4.8112,4.811,4.8107,4.8105,4.8103,4.8105,4.8107,0,0,0,0,0,0,0,0,0,0,0,0,0,4.8132,4.8133,4.8207,4.8207,4.8207,4.8204,4.8204,4.8204,4.8113,4.811,4.8107,4.8104,4.8102,4.8104,4.8107,0,0,0,0,0,0,0,0,0,0,0,0,0,4.815,4.8134,4.8207,4.8161,4.8156,4.8204,4.8204,4.8204,4.8113,4.811,4.8106,4.8103,4.8101,4.8104,4.8107,4.8199,0,0,4.8117,4.8119,0,0,0,0,0,0,0,0,4.8149,4.8153,4.8167,4.8164,4.8159,4.8155,4.8177,4.8202,4.8114,4.813,4.8105,4.8101,4.8123,4.8124,4.8131,4.8199,4.8199,4.8117,4.8119,4.8121,4.8122,0,0,0,0,0,0,0,4.8148,4.8153,4.8206,4.8168,4.8163,4.814,4.8139,4.8181,4.8146,4.8128,4.8121,4.8122,4.812,4.8129,4.8131,4.8199,4.8117,4.812,4.8122,4.8124,4.8339,4.8343,0,0,0,0,0,0,4.8153,4.8152,4.8206,4.8206,4.8145,4.8144,4.8143,4.816,4.8146,4.814,4.8125,4.8118,4.8125,4.8127,4.813,4.8234,4.8121,4.8124,4.8126,4.8335,4.834,4.8344,0,0,0,0,0,0,4.8152,4.8159,4.8206,4.8177,4.8181,4.8149,4.8169,4.8162,4.817,4.8144,4.8137,4.814,4.8122,4.8126,4.8182,4.8233,4.8125,4.8128,4.8331,4.8337,4.8342,4.8445,0,0,0,0,0,0,4.815,4.8159,4.8194,4.8179,4.8183,4.8258,4.8173,4.8164,4.8176,4.8166,4.8156,4.8151,4.8119,4.8178,4.8185,4.8236,4.8131,4.8326,4.8333,4.834,4.8437,4.8453,4.8468,0,0,0,0,0,4.8148,4.8223,4.8196,4.8203,4.8226,4.8261,4.8264,4.8226,4.8181,4.8215,4.8197,4.8151,4.8227,4.8184,4.8192,4.8244,4.8322,4.8331,4.8339,4.843,4.845,4.8467,0,0,0,0,0,0,4.8245,4.822,4.819,4.8263,4.8265,4.8246,4.8287,4.8249,4.8264,4.8255,4.8207,4.8206,4.8269,4.8263,4.8215,4.8331,4.8266,4.8277,4.8333,4.8352,4.8367,4.8366,4.8133,0,0,0,0,0,4.8275,4.8306,4.8283,4.8349,4.8352,4.832,4.8334,4.8305,4.8305,4.8306,4.8292,4.8295,4.8318,4.8335,4.8356,4.8436,4.8432,4.8476,4.8491,4.8504,4.8513,4.8553,4.8572,4.8372,4.8372,4.8372,0,0,4.8337,4.8328,4.835,4.8369,4.8367,4.8399,4.8321,4.8359,4.8383,4.8311,4.8363,4.8354,4.8353,4.8421,4.8451,4.8417,4.8568,4.8515,4.8526,4.8527,4.8564,4.8583,4.86,4.8378,4.8377,4.8376,0,0,4.8466,4.8464,4.8517,4.8517,4.8515,4.8493,4.8506,4.8493,4.8484,4.8535,4.8482,4.8509,4.8552,4.8553,4.8559,4.8689,4.8646,4.8697,4.8777,4.8816,4.8832,4.8846,4.889,4.8906,4.8706,4.8707,4.8707,0,4.8544,4.859,4.855,4.8591,4.86,4.8537,4.859,4.8592,4.8598,4.8605,4.8568,4.862,4.8615,4.8681,4.8713,4.8721,4.8733,4.8696,4.8833,4.8846,4.8859,4.89,4.8917,4.8713,4.8712,4.8711,4.8711,0,4.8684,4.8718,4.8762,4.8767,4.8782,4.8829,4.8795,4.8814,4.8784,4.8766,4.8819,4.8811,4.8828,4.8842,4.8814,4.8905,4.8884,4.8841,4.8775,4.8884,4.8922,4.8938,4.8721,4.8719,4.8717,4.8716,0,0,4.8873,4.8856,4.8872,4.8873,4.8867,4.8891,4.8936,4.8952,4.8969,4.8975,4.901,4.9048,4.9008,4.9015,4.8986,4.9021,4.9122,4.8973,4.8973,4.8999,4.9219,4.9249,4.9268,4.9094,4.9097,4.91,4.9218,0,4.8996,4.907,4.9034,4.9112,4.9141,4.9082,4.9121,4.9121,4.9105,4.9128,4.9111,4.9137,4.9084,4.9087,4.912,4.9103,4.9165,4.9094,4.9125,4.9126,4.9124,4.9288,4.9321,4.9433,4.9233,4.9235,4.9237,0,4.9149,4.916,4.9241,4.9227,4.9238,4.9273,4.9284,4.9307,4.9306,4.9292,4.93,4.9263,4.9305,4.9241,4.9298,4.925,4.9261,4.9255,4.9258,4.9258,4.9187,4.929,4.9468,4.9484,4.9261,4.9259,4.9257,0,4.9275,4.9311,4.9363,4.9367,4.9353,4.9379,4.9374,4.9369,4.9381,4.9391,4.9398,4.9414,4.9422,4.9435,4.9403,4.936,4.9463,4.9398,4.9452,4.9453,4.9474,4.9473,4.9654,4.9486,4.9486,4.9485,4.9485,0,4.9415,4.9466,4.942,4.9452,4.9507,4.9466,4.9521,4.9511,4.9507,4.9535,4.9486,4.9514,4.9471,4.9494,4.947,4.9519,4.9524,4.9513,4.9505,4.9516,4.9517,4.952,4.9511,4.949,4.9489,4.9488,4.9487,0,4.9564,4.9536,4.9588,4.9571,4.9568,4.9609,4.9594,4.9622,4.9604,4.964,4.9647,4.9618,4.9642,4.9612,4.9635,4.9618,4.9685,4.9667,4.9685,4.9679,4.9734,4.9728,4.9922,4.9944,4.9764,4.9766,4.9768,0,4.9654,4.9691,4.9678,4.9693,4.9691,4.9717,4.9728,4.9689,4.9703,4.9704,4.9732,4.9753,4.9767,4.981,4.9791,4.9808,4.9788,4.9855,4.9791,4.9799,4.9786,4.9784,4.9786,4.9868,4.987,4.9872,4.9873,0,4.9815,4.9799,4.9817,4.983,4.9845,4.9854,4.9859,4.9874,4.9834,4.9852,4.9876,4.9888,4.991,4.9931,4.9943,4.9938,4.9899,4.9894,4.9907,4.9917,4.9924,4.9918,4.9718,4.9889,4.9887,4.9886,4.9885,4.9885,4.9935,4.9965,4.996,4.9981,4.9981,4.9986,5.0012,4.9996,5.0016,5.003,5.0007,5.0037,5.0034,5.0045,5.0045,5.0068,5.004,5.0059,5.0064,5.0068,5.0075,4.9923,5.0071,5.007,5.007,5.0069,5.0069,0,5.0091,5.0085,5.0105,5.0113,5.013,5.0092,5.0095,5.0112,5.0139,5.0139,5.0154,5.0182,5.0202,5.0184,5.0201,5.0222,5.0205,5.0228,5.0224,5.0224,5.0102,5.0087,5.0242,5.0242,5.0242,5.0242,5.0241,5.0241,5.0175,5.0222,5.0205,5.0252,5.0245,5.0274,5.0279,5.0284,5.0283,5.0316,5.0332,5.0321,5.0314,5.0329,5.0345,5.0339,5.0347,5.0376,5.0364,5.0249,5.0232,5.0216,5.0202,5.0378,5.0379,5.0483,5.0484,5.0485]}]]